Weather History for KIPL - November, 2012

Change the Weather History Date:

Tuesday, November 13, 2012

  Actual Average Record
Temperature  
Mean Temperature 56 °F -  
Max Temperature 73 °F 78 °F 90 °F (1967)
Min Temperature 39 °F 51 °F 36 °F (1952)
Degree Days  
Heating Degree Days 9    
Growing Degree Days 6 (Base 50)    
Moisture  
Dew Point 19 °F    
Average Humidity 26    
Maximum Humidity 41    
Minimum Humidity 9    
Precipitation  
Precipitation 0.00 in - - ()
Sea Level Pressure  
Sea Level Pressure 30.11 in    
Wind  
Wind Speed 4 mph (West)    
Max Wind Speed 7 mph    
Max Gust Speed -    
Visibility 10 miles    
Events      
Averages and records for this station are not official NWS values.
T = Trace of Precipitation, MM = Missing Value Source: NWS Daily Summary

Daily Weather History Graph

Daily Weather History Graph

Search for Another Location

Airport or City:

Trip Planner

Search our weather history database for the weather conditions in past years. The results will help you decide how hot, cold, wet, or windy it might be!

Date:

Astronomy

Nov. 13, 2012 Rise Set
Actual Time 6:11 AM PST 4:41 PM PST
Civil Twilight 5:45 AM PST 5:07 PM PST
Nautical Twilight 5:15 AM PST 5:37 PM PST
Astronomical Twilight 4:46 AM PST 6:06 PM PST
Moon 5:53 AM PST (11/13) 4:40 PM PST (11/13)
Length of Visible Light 11h 22m
Length of Day
10h 30m
Waning Crescent, 0% of the Moon is Illuminated
Nov 13
Waning Crescent
Nov 13
New
Nov 20
First Quarter
Nov 28
Full
Dec 6
Last Quarter

Hourly Weather History & Observations

Time (PST) Temp. Windchill Dew Point Humidity Pressure Visibility Wind Dir Wind Speed Gust Speed Precip Events Conditions
12:53 AM 44.1 °F 40.1 °F 16.0 °F 32% 30.17 in 10.0 mi WSW 6.9 mph - N/A   Clear
1:53 AM 43.0 °F 40.3 °F 16.0 °F 34% 30.16 in 10.0 mi West 4.6 mph - N/A   Clear
2:53 AM 42.1 °F 39.2 °F 16.0 °F 35% 30.16 in 10.0 mi West 4.6 mph - N/A   Clear
3:53 AM 42.1 °F 40.2 °F 19.9 °F 41% 30.15 in 10.0 mi West 3.5 mph - N/A   Clear
4:53 AM 41.0 °F 38.0 °F 17.1 °F 38% 30.15 in 10.0 mi WSW 4.6 mph - N/A   Clear
5:53 AM 39.9 °F 36.7 °F 16.0 °F 38% 30.16 in 10.0 mi WSW 4.6 mph - N/A   Clear
6:53 AM 42.1 °F 39.2 °F 17.1 °F 37% 30.17 in 10.0 mi WSW 4.6 mph - N/A   Clear
7:53 AM 50.0 °F - 21.0 °F 32% 30.18 in 10.0 mi West 5.8 mph - N/A   Clear
8:53 AM 59.0 °F - 21.9 °F 24% 30.19 in 10.0 mi WNW 3.5 mph - N/A   Clear
9:53 AM 66.9 °F - 18.0 °F 15% 30.18 in 10.0 mi North 4.6 mph - N/A   Clear
10:53 AM 71.1 °F - 15.1 °F 12% 30.16 in 10.0 mi Calm Calm - N/A   Clear
11:53 AM 73.0 °F - 12.0 °F 10% 30.13 in 10.0 mi Calm Calm - N/A   Clear
12:53 PM 73.9 °F - 12.0 °F 9% 30.10 in 10.0 mi East 3.5 mph - N/A   Clear
1:53 PM 73.9 °F - 15.1 °F 11% 30.07 in 10.0 mi West 3.5 mph - N/A   Clear
2:53 PM 73.9 °F - 19.9 °F 13% 30.06 in 10.0 mi West 4.6 mph - N/A   Clear
3:53 PM 73.0 °F - 23.0 °F 15% 30.06 in 10.0 mi WNW 3.5 mph - N/A   Clear
4:53 PM 66.9 °F - 25.0 °F 21% 30.05 in 10.0 mi Calm Calm - N/A   Clear
5:53 PM 62.1 °F - 23.0 °F 22% 30.05 in 10.0 mi SW 4.6 mph - N/A   Clear
6:53 PM 61.0 °F - 21.0 °F 21% 30.05 in 10.0 mi Calm Calm - N/A   Clear
7:53 PM 51.1 °F - 27.0 °F 39% 30.06 in 10.0 mi Calm Calm - N/A   Clear
8:53 PM 52.0 °F - 21.0 °F 30% 30.06 in 10.0 mi Calm Calm - N/A   Clear
9:53 PM 51.1 °F - 19.9 °F 29% 30.06 in 10.0 mi West 4.6 mph - N/A   Clear
10:53 PM 50.0 °F - 19.9 °F 31% 30.06 in 10.0 mi West 5.8 mph - N/A   Clear
11:53 PM 46.9 °F - 21.0 °F 36% 30.07 in 10.0 mi West 6.9 mph - N/A   Clear